Location: ?????
(54.9266°N, 38.5527°E)
Time: 20:03:58
(UTC+00:00)

deb REX - Pass Details

Date: 25 September 2024
Orbit: 705 x 731 km, 89.8° (Epoch: 09 October)

Event Time Altitude Azimuth Distance (km) Brightness Sun altitude
Rises 01:56:33 0° 6° (N) 3,123 ? -12.3°
Reaches altitude 10° 01:59:07 10° 18° (NNE) 2,195 ? -11.9°
Maximum altitude 02:03:22 30° 79° (ENE) 1,275 ? -11.3°
Drops below altitude 10° 02:07:35 10° 140° (SE) 2,176 ? -10.8°
Sets 02:10:07 0° 151° (SSE) 3,089 ? -10.4°
